Weather in Bolshaya Kibya

Russia / Udmurt Republic     56°22′01″N   52°36′08″E
temp.,
°C
wind,
m/s
gust,
m/s
humid.,
%
clouds,
%
prec.,
mm/h
press.,
hPa
HPBL,
m
28 september, tue
tue2801:00+2ne613745 0.0 1023525
04:00+1ne613815 0.0 1024404
07:00+1ne6138647 0.0 1025472
10:00+3ene797194 0.0 1026958
13:00+7ne795169 0.0 10261456
16:00+8ne6849100 0.0 10261563
19:00+4nne41067100 0.0 1028249
22:00+3n3973100 0.0 1028239
29 september, wed
wed2901:00+2nne377976 0.0 1029177
04:00+1n34885 0.0 102961
07:000n35905 0.0 103096
10:00+5nne45655 0.0 1030551
13:00+8nne34506 0.0 10291350
16:00+8nne344657 0.0 10281528
19:00+5n226289 0.0 102915
22:00+3nne227172 0.0 102914
30 september, thu
thu3001:00+3n117495 0.0 102910
04:00+4nnw2271100 0.0 102924
07:00+4nw2276100 0.0 102963
10:00+6nnw337297 0.0 1029548
13:00+8nw346050 0.1 1028990
16:00+9nw4558100 0.1 10281243
19:00+7nw3577100 0.0 1027377
22:00+6wnw3788100 0.1 1027365
1 october, fri
fri101:00+6wnw3691100 0.1 1027269
04:00+7wnw3793100 0.1 1027255
07:00+6nw379483 0.0 1027207
10:00+9nnw357798 0.0 1028397
13:00+12nw346598 0.0 1028869
16:00+12nw346799 0.0 1028979
19:00+10nw2579100 0.0 1029204
22:00+9nw2588100 0.1 1029198
2 october, sat
sat201:00+8nnw2591100 0.0 1030204
04:00+8nw2491100 0.0 1030193
07:00+8nnw2491100 0.0 1030199
10:00+9nnw2383100 0.0 1031287
13:00+10nw2372100 0.0 1031573
16:00+12nw236213 0.0 1031873
19:00+8wnw11785 0.0 103210
22:00+7w118323 0.0 103210